User: anonymous   Login
Location: Unspecified
(0.0000°N, 0.0000°E)
Time: 23:30:12
(UTC+00:00)
Language:

NOSS 8 (F) - Orbit

View from above orbital plane
View from above orbital plane
View from above satellite
View from above satellite

Ground track
Ground track

The orbit data is extracted from the following two-line orbital elements,

1 18010U 87043F   19143.94777649 0.00000900  00000-0  90783-4 0    06
2 18010  63.3052  75.5143 0915967  56.8292 303.1708 13.45509864    02
Epoch (UTC): 23 May 2019 22:44:47
Eccentricity: 0.0915967
inclination: 63.3052°
perigee height: 405 km
apogee height: 1773 km
right ascension of ascending node: 75.5143°
argument of perigee: 56.8292°
revolutions per day: 13.45509864
mean anomaly at epoch: 303.1708°
orbit number at epoch: 0

The dashed part of the orbit path shows where the satellite is in the earth's shadow,  

DLR